Broomfield, CO

3:23 AM MST on December 16, 2019 (GMT -0700)
Jeffco

Weather History for KBJC - November, 2019

Change the Weather History Date:

Tuesday, November 12, 2019

  Actual Average Record
Temperature  
Mean Temperature 42 °F -  
Max Temperature 64 °F 50 °F 78 °F (1989)
Min Temperature 19 °F 30 °F 0 °F (2014)
Degree Days  
Heating Degree Days 24    
Moisture  
Dew Point 15 °F    
Average Humidity 49    
Maximum Humidity 93    
Minimum Humidity 9    
Precipitation  
Precipitation 0.00 in - - ()
Sea Level Pressure  
Sea Level Pressure 30.13 in    
Wind  
Wind Speed 4 mph (WSW)    
Max Wind Speed 23 mph    
Max Gust Speed 26 mph    
Visibility 10 miles    
Events      
Averages and records for this station are not official NWS values.
T = Trace of Precipitation, MM = Missing Value Source: NWS Daily Summary

Daily Weather History Graph

Daily Weather History Graph

Search for Another Location

Airport or City:

Astronomy

Nov. 12, 2019 Rise Set
Actual Time 6:41 AM MST 4:46 PM MST
Civil Twilight 6:13 AM MST 5:15 PM MST
Nautical Twilight 5:40 AM MST 5:48 PM MST
Astronomical Twilight 5:08 AM MST 6:20 PM MST
Moon 5:15 PM MST (11/12) 6:35 AM MST (11/12)
Length of Visible Light 11h 02m
Length of Day
10h 05m
Full, 100% of the Moon is Illuminated
Nov 12
Full
Nov 19
Last Quarter
Nov 26
New
Dec 3
First Quarter
Dec 11
Full

Hourly Weather History & Observations

Time (MST) Temp. Windchill Dew Point Humidity Pressure Visibility Wind Dir Wind Speed Gust Speed Precip Events Conditions
12:12 AM 23.0 °F - 19.4 °F 86% 30.37 in 10.0 mi Calm Calm - N/A   Clear
12:30 AM 21.2 °F - 17.6 °F 86% 30.37 in 10.0 mi Calm Calm - N/A   Clear
12:54 AM 19.4 °F 14.3 °F 17.6 °F 93% 30.35 in 10.0 mi SW 3.5 mph - N/A   Clear
1:12 AM 21.2 °F 14.9 °F 17.6 °F 86% 30.35 in 10.0 mi SW 4.6 mph - N/A   Clear
1:30 AM 21.2 °F - 17.6 °F 86% 30.34 in 10.0 mi Calm Calm - N/A   Clear
1:54 AM 21.2 °F - 17.6 °F 86% 30.33 in 10.0 mi Calm Calm - N/A   Clear
2:12 AM 21.2 °F - 15.8 °F 80% 30.32 in 10.0 mi Calm Calm - N/A   Clear
2:30 AM 23.0 °F - 19.4 °F 86% 30.32 in 10.0 mi Calm Calm - N/A   Clear
2:54 AM 23.0 °F 18.4 °F 17.6 °F 80% 30.31 in 10.0 mi SSW 3.5 mph - N/A   Clear
3:12 AM 21.2 °F 14.9 °F 14.0 °F 74% 30.29 in 10.0 mi WSW 4.6 mph - N/A   Clear
3:30 AM 19.4 °F 11.5 °F 15.8 °F 86% 30.28 in 10.0 mi WSW 5.8 mph - N/A   Clear
3:54 AM 23.0 °F 13.1 °F 17.6 °F 80% 30.27 in 10.0 mi SW 9.2 mph - N/A   Clear
4:12 AM 23.0 °F 15.8 °F 17.6 °F 80% 30.25 in 10.0 mi SW 5.8 mph - N/A   Clear
4:30 AM 23.0 °F 18.4 °F 17.6 °F 80% 30.24 in 10.0 mi SSW 3.5 mph - N/A   Clear
4:54 AM 24.8 °F 20.5 °F 15.8 °F 69% 30.24 in 10.0 mi SSW 3.5 mph - N/A   Clear
5:47 AM 24.8 °F 19.1 °F 12.2 °F 59% 30.22 in 10.0 mi SSW 4.6 mph - N/A   Clear
6:59 AM 23.0 °F 18.4 °F 15.8 °F 74% 30.19 in 40.0 mi South 3.5 mph - N/A   Clear
7:45 AM 26.6 °F 20.0 °F 15.8 °F 64% 30.19 in 40.0 mi SW 5.8 mph - N/A   Partly Cloudy
8:47 AM 32.0 °F 28.7 °F 24.8 °F 75% 30.19 in 40.0 mi South 3.5 mph - N/A   Partly Cloudy
9:47 AM 39.2 °F - 19.4 °F 45% 30.16 in 40.0 mi Calm Calm - N/A   Partly Cloudy
10:45 AM 44.6 °F - 21.2 °F 39% 30.14 in 40.0 mi Calm Calm - N/A   Partly Cloudy
11:45 AM 53.6 °F - 19.4 °F 26% 30.10 in 40.0 mi SE 5.8 mph - N/A   Partly Cloudy
12:45 PM 57.2 °F - 15.8 °F 20% 30.07 in 40.0 mi SE 6.9 mph - N/A   Partly Cloudy
1:23 PM 60.8 °F - 10.4 °F 14% 30.05 in 40.0 mi West 16.1 mph 23.0 mph N/A   Partly Cloudy
1:47 PM 64.4 °F - 3.2 °F 9% 30.04 in 40.0 mi WSW 16.1 mph 21.9 mph N/A   Partly Cloudy
2:50 PM 57.2 °F - 24.8 °F 29% 30.02 in 30.0 mi NNW 11.5 mph - N/A   Partly Cloudy
3:45 PM 57.2 °F - 21.2 °F 25% 30.00 in 30.0 mi NNW 9.2 mph - N/A   Partly Cloudy
4:46 PM 55.4 °F - 3.2 °F 12% 29.99 in 10.0 mi SW 5.8 mph - N/A   Partly Cloudy
5:50 PM 48.2 °F - 23.0 °F 37% 30.00 in 10.0 mi NNW 8.1 mph - N/A   Partly Cloudy
6:45 PM 46.4 °F - 21.2 °F 37% 29.99 in 10.0 mi Calm Calm - N/A   Partly Cloudy
7:45 PM 44.6 °F - 21.2 °F 39% 29.97 in 10.0 mi Calm Calm - N/A   Partly Cloudy
8:45 PM 50.0 °F - 8.6 °F 19% 29.97 in 10.0 mi West 4.6 mph - N/A   Partly Cloudy
9:12 PM 50.0 °F - 10.4 °F 20% 29.96 in 10.0 mi SW 3.5 mph - N/A   Clear
9:30 PM 55.4 °F - 5.0 °F 13% 29.96 in 10.0 mi WNW 18.4 mph - N/A   Clear
9:45 PM 57.2 °F - -0.4 °F 10% 29.96 in 10.0 mi WNW 17.3 mph - N/A   Partly Cloudy
10:12 PM 55.4 °F - 1.4 °F 11% 29.94 in 10.0 mi WNW 6.9 mph 10.4 mph N/A   Clear
10:54 PM 55.4 °F - 3.2 °F 12% 29.93 in 10.0 mi WNW 23.0 mph 26.5 mph N/A   Clear
11:12 PM 55.4 °F - 5.0 °F 13% 29.91 in 10.0 mi West 17.3 mph - N/A   Clear
11:30 PM 55.4 °F - 8.6 °F 15% 29.90 in 10.0 mi WNW 12.7 mph - N/A   Clear
11:53 PM 57.2 °F - 10.4 °F 16% 29.88 in 10.0 mi South 11.5 mph 23.0 mph N/A   Clear